www.pogodaiklimat.ru

Погода и климат >> Архив погоды >> Испания >> Madrid


АРХИВ ПОГОДЫ в Madrid

Время (UTC), дата Ветер
(напр.,м/с)
 
Видим.   Явления Облачность Т
(С)
Тd
(С)
f
(%)
Тe
(С)
Тes
(С)
Комфортность P
(гПа)
Po
(гПа)
Тmin
(С)
Tmax
(С)
R
(мм)
R24
(мм)
S
(см)
07 18.04 С 3 30 км 4/0
[Ci fib]
+12.9 +2.8 50 +12 +13 тепло 1017.2 949.6
08 18.04 С 3 24 км 3/0
[Ci fib]
+17.1 +2.8 38 +17 +21 тепло 1015.9 949.3
09 18.04 СВ 4 30 км 4/0
[Ci fib]
+20.1 -0.1 26 +20 +26 тепло 1015.0 949.1
10 18.04 СВ 4 30 км 4/0
[Ci fib]
+21.7 +1.2 26 +21 +30 комфорт 1014.5 948.9
11 18.04 В 2 28 км 5/0
[Ci fib]
+23.3 +1.3 23 +22 +36 комфорт 1013.9 948.7
12 18.04 В 2 30 км 5/0
[Ci fib]
+25.6 +2.2 22 +24 +41 комфорт 1012.6 948.0
13 18.04 ЮВ 3 30 км 5/1
[Cu hum Ci fib]
+26.5 +1.8 20 +25 +36 комфорт 1011.5 947.2
14 18.04 СЗ 3 30 км 3/1
[Cu hum Ci fib]
+27.0 +1.8 20 +25 +35 комфорт 1010.6 946.5
15 18.04 В 2 30 км 5/0
[Ci fib]
+25.6 +2.2 22 +24 +35 комфорт 1012.6 948.0
16 18.04 СЗ 4 30 км 1/1 1000 м
[Cu hum]
+27.1 +1.7 19 +25 +30 комфорт 1009.2 945.2
17 18.04 С 3 30 км 1/1 1500 м
[Cu hum Ci fib]
+26.4 +1.5 20 +25 +27 комфорт 1009.3 945.1
18 18.04 СВ 2 30 км 1/0
[Ci fib]
+24.5 +0.6 21 +23 +24 комфорт 1009.8 945.2 +27.8
19 18.04 СВ 2 30 км 1/1 1500 м
[Cu hum Ci fib]
+22.3 +1.1 25 +22 +22 комфорт 1010.7 945.5
20 18.04 СВ 4 30 км 4/0
[Ac trans Ci sp]
+21.3 -1.3 22 +21 +21 комфорт 1011.8 946.3
21 18.04 С 3 30 км 3/0 1500 м
[Ci fib]
+19.5 +0.7 28 +20 +20 тепло 1013.5 947.6
22 18.04 СЗ 4 30 км 3/0
[Ci fib]
+17.7 +2.7 37 +18 +18 тепло 1014.6 948.2
23 18.04 С 4 30 км 1/0
[Ci fib]
+16.3 +2.1 38 +16 +16 тепло 1015.1 948.4
00 19.04 С 3 30 км 1/0
[Ci fib]
+15.2 +2.2 41 +15 +15 тепло 1015.5 948.5
01 19.04 С 3 30 км 3/0
[Ac trans Ci sp]
+14.7 +2.2 43 +14 +14 тепло 1015.6 948.5
02 19.04 С 4 30 км 3/0
[Ac trans Ci fib]
+13.9 +2.2 45 +13 +13 тепло 1015.5 948.2
03 19.04 С 4 30 км 1/0
[Ci fib]
+13.5 +1.4 44 +12 +12 тепло 1015.6 948.2
04 19.04 С 3 30 км 4/0
[Ac trans Ci fib]
+13.4 +0.4 41 +12 +12 тепло 1016.0 948.5
05 19.04 С 1 30 км 1/0
[Ac trans Ci fib]
+12.0 -1.0 41 +13 +13 тепло 1016.6 948.8
06 19.04 С 3 30 км 1/0
[Ac trans Ci fib]
+11.9 -3.1 35 +11 +11 тепло 1017.3 949.4 +11.3
07 19.04 СВ 3 30 км 4/0
[Ac trans Ci fib]
+13.4 -2.5 33 +13 +14 тепло 1017.4 949.9
08 19.04 СВ 4 30 км 4/0
[Ac trans Ci fib]
+14.4 -1.5 33 +14 +17 тепло 1017.6 950.2
09 19.04 В 3 30 км 8/0
[Ac trans Cs]
+16.3 +0.5 34 +16 +23 тепло 1017.2 950.3
10 19.04 В 1 30 км 6/0
[Ac trans Cs]
+17.4 +1.8 35 +18 +31 опасность
простуды
1017.0 950.4
11 19.04 Ю 2 30 км 4/1 1500 м
[Cu hum Ac trans Ci sp]
+19.6 +4.2 36 +21 +32 комфорт 1015.7 949.7
12 19.04 Ю 3 25 км 5/1 1500 м
[Cu hum Ac trans Ci sp]
+21.3 +7.0 40 +22 +33 комфорт 1014.5 948.9
13 19.04 В 5 30 км 8/1 1500 м
[Cu hum As op Ci sp]
+19.9 +8.0 46 +21 +25 комфорт 1013.8 948.1
14 19.04 ЮЗ 3 30 км {морось} н/о +22.4 +9.1 43 +24 +24 комфорт 1013.0 947.8
15 19.04 Ю 7 30 км {дождь} н/о +22.8 +9.7 43 +24 +24 комфорт 1012.1 947.1
16 19.04 ЮВ 5 30 км 5/3 1000 м
[Sc Ac und Cs]
+21.6 +9.4 46 +23 +25 комфорт 1012.5 947.2
17 19.04 Ю 8 30 км 5/1 1000 м
[Cu med, cong Ac cuf Ci sp]
+20.1 +8.9 48 +21 +21 комфорт 1013.1 947.5
18 19.04 ЮВ 7 30 км 6/1 1000 м
[Cu hum Ac und Cs]
+18.2 +8.7 54 +18 +18 тепло 1014.1 948.0 +23.0
19 19.04 ЮВ 7 30 км 8/1 1000 м
[Cu med, cong Ac und Cs]
+15.8 +8.1 60 +14 +14 тепло 1016.1 949.3
20 19.04 ЮВ 6 30 км 8/5 2000 м
[Cu med, cong Ac und Cs]
+14.8 +7.9 63 +13 +13 по сезону 1017.7 950.5
21 19.04 ЮВ 5 27 км 10/0
[]
+13.1 +8.7 75 +11 +11 по сезону 1017.8 950.2 612
22 19.04 ЮВ 3 27 км 10/5 2000 м
[Frnb Ac As Cs]
+12.8 +8.2 74 +12 +12 тепло 1019.1 951.5
23 19.04 В 3 30 км н/о +12.7 +7.5 71 +12 +12 тепло 1019.6 951.9
00 20.04 СВ 2 30 км 4/1
[Cu hum Ci fib]
+12.6 +7.4 71 +12 +12 тепло 1019.6 951.9
01 20.04 СВ 1 30 км 5/5 2000 м
[Cu hum]
+12.1 +7.7 74 +12 +12 тепло 1019.4 951.6
02 20.04 штиль 0 30 км 5/0
[Ci fib]
+11.9 +7.6 75 +11 +11 тепло 1019.8 951.9
03 20.04 ЮВ 2 30 км слабая морось 10/4 300 м
[Frnb Ac As Cs]
+12.0 +7.4 73 +11 +11 тепло 1019.9 952.0
04 20.04 ЮВ 2 10 км слабый дождь {морось} 10/8 300 м
[Frnb Ac As Cs]
+10.9 +8.6 86 +10 +10 тепло 1020.9 952.7
05 20.04 В 2 14 км слабая морось {дождь} 10/9 300 м
[Frnb Ac As Cs]
+10.4 +9.2 92 +9 +9 тепло 1020.9 952.6
06 20.04 Ю 1 14 км слабый дождь 10/8 200 м
[Frnb Ac As Cs]
+10.1 +8.4 89 +10 +10 тепло 1021.5 953.0 +9.9 2
07 20.04 В 2 30 км 10/6 300 м
[Cu Sc Ac As Ci sp]
+10.0 +8.0 87 +9 +9 по сезону 1022.1 953.6
08 20.04 В 2 30 км 9/6 600 м
[Cu Sc Ac As Ci sp]
+11.1 +8.4 83 +10 +11 по сезону 1022.3 954.0
09 20.04 ЮВ 4 30 км 9/6 600 м
[Cu Sc As trans Ci sp]
+13.2 +6.6 64 +12 +13 по сезону 1021.9 954.1
10 20.04 ЮВ 5 23 км 9/6 600 м
[Cu Sc Ac As Ci sp]
+15.0 +5.6 53 +14 +16 по сезону 1021.2 953.8
11 20.04 В 4 24 км 9/6 600 м
[Cu Sc Ac As Ci sp]
+15.5 +5.0 50 +15 +18 по сезону 1020.9 953.6
12 20.04 СВ 4 30 км 8/5 1000 м
[Cu Sc Ac As Ci sp]
+17.6 +5.8 46 +17 +22 тепло 1019.8 953.1
13 20.04 С 3 30 км 8/5 1000 м
[Cu Sc Ac As Ci sp]
+17.9 +6.1 46 +18 +23 тепло 1019.3 952.7
14 20.04 В 2 30 км 8/5 1000 м
[Cu Sc Ac As Ci sp]
+19.5 +5.6 40 +21 +26 комфорт 1018.6 952.4
15 20.04 ЮВ 4 30 км 8/5 1000 м
[Cu Sc Ac As Ci sp]
+20.1 +2.3 31 +21 +23 комфорт 1017.8 951.8
16 20.04 Ю 7 30 км 8/0
[Ac As Ci sp]
+19.1 +4.2 37 +19 +20 тепло 1018.1 951.8
17 20.04 ЮВ 7 28 км н/о +18.4 +4.3 39 +18 +18 тепло 1018.6 952.1
18 20.04 ЮВ 7 30 км 6/0
[As trans Ci sp]
+16.1 +3.4 43 +15 +15 по сезону 1019.5 952.4 +20.3
19 20.04 ЮВ 8 30 км 4/0
[Ci sp]
+14.0 +4.3 52 +12 +12 по сезону 1020.7 953.2
20 20.04 ЮВ 6 30 км 1/0
[Ci sp]
+12.0 +4.3 59 +10 +10 по сезону 1022.3 954.2
21 20.04 ЮВ 3 30 км ясно +11.1 +4.2 62 +10 +10 по сезону 1023.7 955.3
22 20.04 ЮВ 3 30 км ясно +10.3 +4.1 65 +8 +8 по сезону 1024.6 955.9
23 20.04 ЮВ 4 30 км ясно +9.6 +3.9 68 +7 +7 по сезону 1025.9 956.9
00 21.04 ЮВ 1 30 км ясно +8.7 +3.5 70 +8 +8 по сезону 1026.5 957.3
01 21.04 ЮВ 5 30 км 3/0
[Ci sp]
+8.6 +1.6 61 +6 +6 по сезону 1026.8 957.5
02 21.04 В 2 30 км 1/0
[Ci fib]
+7.4 +0.5 62 +6 +6 по сезону 1026.8 957.3
03 21.04 С 2 30 км 1/0
[Ci sp]
+5.0 +0.6 73 +3 +3 прохладно 1027.2 957.0
04 21.04 С 2 30 км 1/0
[Ci fib]
+3.4 -0.4 76 +1 +1 по сезону 1027.4 956.8
05 21.04 С 2 30 км ясно +2.5 +0.6 87 -1 -1 прохладно 1027.4 956.6
06 21.04 С 2 30 км ясно +2.2 +0.4 88 -1 -0 холодно 1027.8 956.9 +2.2
07 21.04 З 1 30 км ясно +5.4 +0.9 73 +4 +7 прохладно 1027.6 957.5
08 21.04 С 1 30 км ясно +9.1 +0.4 54 +9 +15 по сезону 1026.9 957.7
09 21.04 С 2 24 км н/о +12.1 +0.6 45 +12 +12 по сезону 1026.0 957.6
10 21.04 В 4 30 км ясно +15.5 -2.7 28 +15 +25 по сезону 1025.0 957.4
11 21.04 ЮВ 2 24 км ясно +17.0 -4.4 23 +17 +33 опасность
простуды
1024.0 956.7
12 21.04 ЮВ 4 30 км ясно +18.8 -7.0 17 +19 +30 тепло 1022.8 956.0
13 21.04 ЮВ 4 30 км ясно +20.1 -7.1 15 +20 +32 тепло 1021.9 955.5
14 21.04 СВ 3 30 км ясно +20.8 -6.4 15 +21 +34 комфорт 1021.0 954.8
15 21.04 ЮЗ 3 30 км ясно +21.9 -6.6 14 +20 +30 тепло 1020.0 954.1
16 21.04 ЮВ 5 30 км ясно +22.6 -4.0 17 +21 +25 комфорт 1019.5 953.8
17 21.04 ЮВ 7 30 км ясно +21.2 -1.2 22 +21 +22 комфорт 1020.1 954.1
18 21.04 ЮВ 8 30 км ясно +19.2 -0.6 26 +19 +19 тепло 1020.9 954.4 +22.9
19 21.04 Ю 7 30 км ясно +16.4 -1.4 30 +15 +15 тепло 1022.5 955.2
20 21.04 Ю 6 30 км ясно +14.6 -0.4 36 +13 +13 по сезону 1023.9 956.2
21 21.04 ЮВ 5 30 км ясно +12.9 -1.5 37 +11 +11 по сезону 1025.2 957.0
22 21.04 ЮВ 7 30 км ясно +11.5 -0.6 43 +9 +9 тепло 1026.4 957.8
23 21.04 ЮВ 2 30 км ясно +9.5 -1.7 45 +9 +9 по сезону 1027.4 958.2
00 22.04 В 2 30 км ясно +8.6 -3.9 41 +8 +8 по сезону 1027.9 958.4
01 22.04 СВ 1 30 км ясно +7.6 -5.0 40 +7 +7 тепло 1028.0 958.4
02 22.04 С 1 30 км ясно +6.1 -4.8 45 +6 +6 по сезону 1027.9 957.9
03 22.04 С 2 30 км ясно +4.2 -3.2 59 +2 +2 холодно 1028.2 957.7
04 22.04 С 3 30 км ясно +3.6 -2.8 63 +1 +1 по сезону 1027.9 957.3
05 22.04 СЗ 3 30 км 9/0
[Cs]
+2.3 -2.7 70 -2 -2 холодно 1028.1 957.1
06 22.04 С 1 30 км 5/0
[Cs]
+2.9 -1.9 71 +2 +2 прохладно 1028.1 957.3 +2.3
07 22.04 С 2 30 км 9/0
[Cs]
+6.2 -1.6 57 +5 +7 прохладно 1027.2 957.3
08 22.04 СЗ 2 30 км 8/0
[Cs]
+9.3 -2.6 43 +8 +12 по сезону 1026.1 957.0
09 22.04 СЗ 2 30 км 9/0
[Cs]
+13.1 -6.6 25 +13 +20 по сезону 1024.8 956.6
10 22.04 В 2 30 км 9/0
[Cs]
+16.2 -5.6 22 +16 +27 по сезону 1023.5 956.1
11 22.04 В 2 30 км 9/0
[Cs]
+16.8 -6.5 20 +17 +30 опасность
простуды
1022.6 955.4
12 22.04 Ю 2 30 км 9/0
[Cs]
+17.6 -6.0 19 +18 +32 опасность
простуды
1021.7 954.7 0.3
13 22.04 ЮВ 2 30 км 10/0
[Cs]
+19.3 -6.0 17 +20 +33 опасность
простуды
1020.3 953.8
14 22.04 В 2 30 км 10/0
[Cs]
+20.7 -5.8 16 +21 +32 комфорт 1019.1 953.0
15 22.04 ЮВ 3 30 км 10/0
[Cs]
+20.7 -6.2 16 +21 +29 комфорт 1018.1 952.1
16 22.04 ЮВ 2 30 км 9/0
[Cs]
+21.2 -5.1 17 +20 +26 тепло 1017.3 951.5
17 22.04 Ю 2 30 км 9/0
[Cs]
+21.3 -4.6 17 +20 +23 тепло 1017.0 951.2
18 22.04 ЮВ 4 30 км 9/0
[Cs]
+19.9 -3.9 20 +20 +20 тепло 1017.1 951.0 +21.4
19 22.04 ЮВ 2 30 км 10/0
[Ac trans Cs]
+18.4 -3.9 22 +19 +19 тепло 1017.4 950.9
20 22.04 ЮВ 2 30 км 9/0
[Ac As Cs]
+15.6 -3.1 27 +16 +16 тепло 1018.5 951.3
21 22.04 В 1 30 км 10/0
[Ac As Cs]
+13.2 -1.9 35 +15 +15 тепло 1019.4 951.7
22 22.04 СЗ 2 30 км 10/0
[Ac As Cs]
+11.3 -1.3 42 +11 +11 тепло 1019.9 951.7
23 22.04 С 3 30 км 10/0
[Ac As Cs]
+11.5 -3.0 36 +11 +11 тепло 1019.8 951.6
00 23.04 С 3 30 км 10/0
[Ac As Cs]
+10.5 -3.3 38 +9 +9 по сезону 1020.0 951.6
01 23.04 С 2 30 км 10/0
[Ac As Cs]
+9.3 -3.4 41 +9 +9 тепло 1020.3 951.6
02 23.04 СЗ 2 30 км н/о +8.2 -3.0 45 +7 +7 по сезону 1020.2 951.2
03 23.04 С 2 30 км н/о +7.8 -2.7 47 +7 +7 по сезону 1020.1 951.0
04 23.04 С 2 30 км 8/0
[Ac As Cs]
+7.4 -3.1 47 +6 +6 тепло 1020.2 951.0
05 23.04 С 2 30 км 8/0
[Ac As Cs]
+6.8 -3.0 50 +5 +5 по сезону 1020.4 951.0
06 23.04 С 2 30 км 8/0
[Ac As Cs]
+6.2 -1.8 57 +5 +5 по сезону 1020.7 951.2 +6.2
07 23.04 С 2 30 км 6/0
[Ac trans Cs]
+7.8 -1.8 51 +7 +9 по сезону 1020.7 951.6
08 23.04 СЗ 1 30 км 5/0
[Ac trans Cs]
+11.0 -2.1 40 +11 +16 по сезону 1019.9 951.6
09 23.04 С 2 30 км 5/0
[Cs]
+14.9 -0.5 35 +15 +24 тепло 1018.5 951.2
10 23.04 СЗ 2 30 км 5/0
[Cs]
+18.5 +1.8 33 +19 +31 опасность
простуды
1017.4 951.0
11 23.04 СВ 2 30 км 5/0
[Cs]
+20.6 +1.1 27 +22 +37 комфорт 1016.3 950.5
12 23.04 Ю 2 30 км 4/0
[Cs]
+22.8 +1.3 24 +22 +38 комфорт 1015.1 949.7
13 23.04 Ю 2 30 км 3/0
[Ci sp]
+24.0 -0.7 19 +23 +40 комфорт 1013.9 948.9
14 23.04 Ю 2 30 км 3/0
[Ci sp]
+25.0 -2.3 16 +23 +37 комфорт 1013.0 948.2
15 23.04 З 2 30 км 4/0
[Ac trans Ci sp]
+25.1 -2.7 16 +23 +34 комфорт 1012.2 947.5
16 23.04 СЗ 2 30 км 3/0
[Ci sp]
+25.8 -1.8 16 +24 +31 комфорт 1011.5 947.0
17 23.04 ЮЗ 2 30 км 3/0
[Cc]
+25.9 -2.0 16 +24 +27 комфорт 1011.2 946.7
18 23.04 ЮВ 1 30 км н/о +25.2 -1.8 17 +23 +23 комфорт 1011.2 946.6 +26.2
19 23.04 Ю 2 30 км 6/0
[Ac und Ci fib]
+22.6 -2.8 18 +21 +21 комфорт 1011.9 946.7
20 23.04 С 2 30 км 4/0
[Ac cast]
+18.8 -2.2 24 +20 +20 тепло 1013.2 947.1
21 23.04 С 3 30 км 3/0
[Ci fib]
+17.7 -1.2 28 +18 +18 тепло 1013.8 947.4
22 23.04 С 2 30 км 4/0
[Ci fib]
+15.0 +0.2 36 +15 +15 тепло 1014.7 947.7
23 23.04 ЮВ 2 30 км 3/0
[Ci fib]
+13.7 +0.6 41 +14 +14 тепло 1015.4 948.0
00 24.04 ЮВ 2 30 км ясно +15.1 +1.7 40 +15 +15 тепло 1015.2 948.2
01 24.04 ЮВ 3 30 км ясно +14.7 +4.3 50 +14 +14 тепло 1015.1 948.0
02 24.04 С 2 30 км 1/0
[Ci fib]
+12.1 +2.7 53 +12 +12 тепло 1015.8 948.1
03 24.04 С 2 30 км 3/0
[Ci sp]
+10.1 +1.9 57 +9 +9 по сезону 1016.2 948.0
04 24.04 СЗ 2 30 км 3/0
[Ci sp]
+8.9 +1.0 58 +7 +7 тепло 1016.5 948.0
05 24.04 С 2 30 км 3/0
[Ci sp]
+8.8 +0.6 56 +8 +8 тепло 1016.7 948.1
06 24.04 С 1 30 км 3/0
[Ac cast Ci fib]
+8.6 +1.3 60 +8 +9 по сезону 1017.2 948.6 +8.3
07 24.04 С 2 30 км 1/0
[Ac cast]
+11.4 +1.8 52 +11 +13 по сезону 1016.8 948.9
08 24.04 СЗ 1 30 км 3/0
[Ac cast Ci fib]
+14.5 +2.6 45 +15 +21 тепло 1016.2 949.0
09 24.04 ЮВ 1 30 км 1/0
[Ac cast Ci fib]
+17.7 +3.3 38 +19 +29 тепло 1015.2 948.8
10 24.04 Ю 2 30 км 1/0
[Ci fib]
+20.0 +4.8 37 +21 +34 комфорт 1014.3 948.5
11 24.04 Ю 2 21 км 1/0
[Ac lent Ci fib]
+22.3 +6.4 36 +23 +39 комфорт 1013.2 947.9
12 24.04 Ю 2 30 км 3/0
[Ac cast Ci fib]
+24.0 +5.0 29 +24 +41 комфорт 1011.7 946.9
13 24.04 Ю 3 20 км 3/1 1500 м
[Cb calv Ac cuf Ci ing]
+26.2 +5.6 27 +26 +37 жарко 1010.2 946.0
14 24.04 ЮЗ 3 30 км 4/3 2000 м
[Cu med, cong Ac cast Ci fib]
+26.3 +5.8 27 +26 +34 жарко 1009.6 945.4
15 24.04 Ю 3 14 км 5/4 2000 м
[Cu med, cong Ci fib]
+27.5 +4.4 23 +26 +32 жарко 1008.6 944.7
16 24.04 С 9 15 км 8/8 2000 м
[Cu med, cong Ci sp]
+21.8 +7.0 38 +23 +23 комфорт 1010.3 945.1
17 24.04 С 6 25 км 4/4 2000 м
[Cu med, cong Ci fib]
+22.7 +7.1 37 +24 +24 комфорт 1009.5 944.6
18 24.04 С 4 27 км н/о +21.2 +7.3 41 +22 +22 комфорт 1009.7 944.4 +27.8
20 24.04 СЗ 3 30 км 6/3 2000 м
[Cu med, cong Ac cuf Ci ing]
+17.0 +8.1 56 +17 +17 тепло 1011.1 944.9
21 24.04 СЗ 3 30 км 9/1 2000 м
[Cu med, cong Ac cuf Ci ing]
+15.8 +8.4 61 +15 +15 тепло 1011.5 945.0
22 24.04 СЗ 4 30 км 9/1 2000 м
[Cu med, cong Ac cuf Ci ing]
+15.7 +8.4 62 +15 +15 тепло 1011.6 945.1
23 24.04 СЗ 2 30 км 9/1 2000 м
[Cu med, cong Ac cuf Ci ing]
+14.3 +7.9 65 +14 +14 тепло 1011.7 944.8
00 25.04 СЗ 1 30 км 10/0
[Ac und Cs]
+14.0 +8.0 67 +14 +14 тепло 1011.9 944.9
02 25.04 ЮВ 3 18 км 9/1 1500 м
[Cb cap Ac und Cs]
+13.8 +11.4 85 +13 +13 тепло 1011.1 944.2
01 25.04 ЮЗ 3 15 км в посл. час гроза 10/3 1500 м
[Cb cap Ac und Cs]
+16.1 +11.4 74 +16 +16 тепло 1010.8 944.5
03 25.04 С 1 15 км 9/1 1000 м
[Cu Sc Ac und Cs]
+12.8 +11.4 91 +13 +13 тепло 1011.1 944.0 4
04 25.04 С 1 15 км слабый дождь 9/4 1500 м
[Cu Sc Ac und Cs]
+12.9 +11.6 92 +13 +13 тепло 1011.0 943.9
05 25.04 СЗ 3 15 км в посл. час дождь 9/4 1500 м
[Cu Sc Ac und Cs]
+13.0 +11.4 90 +12 +12 тепло 1010.6 943.6
06 25.04 ЮВ 3 15 км 9/4 1500 м
[Cu Sc Ac As Cs]
+13.3 +12.0 92 +12 +12 тепло 1010.8 943.8 +12.4 0.7
07 25.04 ЮВ 3 15 км 9/6 600 м
[Cu Sc Ac As Cs]
+13.6 +12.2 91 +13 +13 тепло 1011.0 944.1

 

Местоположение метеостанции Madrid (Испания): широта 40.45 долгота -3.55 высота над уровнем моря 582 м.

В архиве по умолчанию представлена погода в Madrid за последнюю неделю. Архивные данные за месяц целиком и за предыдущие месяцы, начиная с января 2011 года, Вы можете получить, выбрав интересующий диапазон дат из раскрывающегося списка и нажав кнопку "Ввод!".

Внимание! Время в таблицах - всемирное. Для получения местного времени необходимо прибавить поправку, которая в Madrid равна 1 ч.

Смотрите также архив погоды в соседних городах и на ближайших метеорологических станциях:

Погода в Madrid Airport (Испания) (22 км)
Погода в Guadalajara (Испания) (39 км)
Погода в Navacerrada (Испания) (54 км)
Погода в Segovia (Испания) (74 км)
Погода в Toledo (Испания) (76 км)
Погода в Avila (Испания) (100 км)
Погода в Cuenca (Испания) (128 км)
Погода в Molina de Aragon (Испания) (148 км)
Погода в Ciudad Real (Испания) (167 км)
Погода в Valladolid (Испания) (168 км)

Пояснения к столбцам:

Ветер - указаны скорость ветра в м/с - средняя за 10 мин, порывы в срок и между сроками (в фигурных скобках) и направление, откуда дует ветер: С - северный, СВ - северо-восточный, В - восточный, ЮВ - юго-восточный, Ю - южный, ЮЗ - юго-западный, З - западный, СЗ - северо-западный.
Видимость - горизонтальная дальность видимости в метрах или километрах. При видимости от 1 до 10 км при отсутствии осадков обычно наблюдается дымка, при ухудшении видимости до 1 км и менее - туман. В сухую погоду видимость может ухудшаться дымом, пылью или мглою.
Явления - указаны атмосферные явления, наблюдавшиеся в срок или в последний час перед сроком; фигурными скобками обозначены явления, наблюдавшиеся между сроками (за 1-3 часа до срока); квадратными скобками обозначены град или гололедные отложения с указанием их диаметра в мм.
Облачность - указаны через наклонную черту общая и нижняя облачность в баллах и высота нижней границы облаков в метрах; квадратными скобками обозначены формы облаков: Ci - перистые, Cs - перисто-слоистые, Cc - перисто-кучевые, Ac - высококучевые, As - высокослоистые, Sc - слоисто-кучевые, Ns - слоисто-дождевые, Cu - кучевые, Cb - кучево-дождевые. Подробнее классификацию облаков см. в Атласе облаков (PDF).
T - Температура воздуха - температура, измеренная на высоте 2 м над землей.
Td - Температура точки росы - температура, при понижении до которой содержащийся в воздухе водяной пар достигнет насыщения.
f - Относительная влажность воздуха - влажноcть воздуха, измеренная на высоте 2 м над землей.
Te - Эффективная температура - температура, которую ощущает одетый по сезону человек в тени. Характеристика душности погоды. При расчете учитывается влияние влажности воздуха и скорости ветра на теплоощущения человека.
Tes - Эффективная температура на солнце - температура, которую ощущает человек, с поправкой на солнечный нагрев. Характеристика знойности погоды. Зависит от высоты солнца над горизонтом, облачности и скорости ветра. Ночью, в пасмурную погоду, а также при ветре 12 м/с и более поправка равна нулю.
P - Атмосферное давление - приведенное к уровню моря атмосферное давление.
Po - Атмосферное давление - измеренное на уровне метеостанции атмосферное давление.
Tmin - Минимальная температура - минимум температуры воздуха на высоте 2 м над землей.
Tmax - Максимальная температура - максимум температуры воздуха на высоте 2 м над землей.
R - Количество осадков - Количество выпавших осадков за период времени, мм. При наведении курсора мыши на число - период времени, за который выпало указанное количество осадков.
R24 - Количество осадков - Количество выпавших осадков за 24 часа, мм.
S - Снежный покров - Высота снежного покрова, см. При наведении курсора мыши на число - состояние снежного покрова и степень покрытия местности в баллах.